Content
SEND FEEDBACK

Daily
Averages
Monthly
Summary
United States of America

LOUISIANA, MISSOURI


Home > North America > United States > Missouri
Elevation: 480 feet     Latitude: 39 27N     Longitude: 091 03W

WEATHER
 
SELECT A DAY
Number of Records: 318,743;   Date Range: 7/17/01 - 7/26/14
 
SHARE

PRINT THIS DATA

[ ← Previous Day ]
WEATHER ALMANAC - JANUARY 9, 2013
[ Next Day → ]
[ °C ]   °F
Weather ElementAverageHighLow
Temperature43.2 °F52 °F (1:35 pm)34.7 °F (11:15 pm)
Dewpoint32.8 °F35.6 °F (10:55 am)29.7 °F (11:55 pm)
Humidity67.6 %84 % (11:15 pm)47 % (2:35 pm)
Barometer30.36 in30.49 in (8:15 pm)30.14 in (12:35 am)
Wind Speed7.1 mph17.3 mph (1:55 pm)
Wind Gust17.3 mph (12:35 am)
Weather ElementAverage
Visibility10 mi
Wind DirectionSSW (210.1 °)

Weather ElementTotal
Precipitation---
Heating Degree Days21.7 (Base 65)
Averaged from 71 records on January 9, 2013
WEATHER CONDITIONS BREAKOUT
WIND DIRECTION BREAKOUT
WEATHER BY HOUR - JANUARY 9, 2013
[ °C ]   °F
Local TimeTemperatureDewpointHumidityBarometerVisibilityWind DirectionWind SpeedGust SpeedPrecipitationEventsConditions
12:35 AM45.3 °F31.6 °F59 %30.14 in10.0 miSW (230°)11.5 mph17.3 mphClear
12:55 AM45.5 °F32.0 °F59 %30.15 in10.0 miSW (230°)12.7 mphScattered Clouds
1:15 AM45.9 °F32.9 °F61 %30.16 in10.0 miWSW (240°)11.5 mphMostly Cloudy
1:35 AM46.9 °F34.0 °F61 %30.16 in10.0 miWSW (240°)13.8 mphScattered Clouds
1:55 AM46.4 °F34.2 °F62 %30.17 in10.0 miWSW (240°)13.8 mphClear
2:15 AM46.2 °F34.7 °F64 %30.18 in10.0 miWSW (250°)11.5 mphClear
2:35 AM45.9 °F34.9 °F66 %30.20 in10.0 miWSW (250°)11.5 mphClear
2:55 AM45.0 °F34.7 °F67 %30.21 in10.0 miWest (260°)8.1 mphClear
3:15 AM44.1 °F34.7 °F70 %30.22 in10.0 miWSW (250°)5.8 mphClear
3:35 AM42.8 °F34.3 °F72 %30.23 in10.0 miWSW (250°)9.2 mphClear
3:55 AM41.9 °F34.2 °F74 %30.24 in10.0 miWSW (250°)8.1 mphClear
4:15 AM41.0 °F34.0 °F76 %30.24 in10.0 miWSW (250°)8.1 mphClear
4:35 AM40.8 °F33.8 °F76 %30.25 in10.0 miWSW (250°)9.2 mphClear
4:55 AM40.1 °F33.3 °F77 %30.25 in10.0 miWSW (250°)8.1 mphClear
5:15 AM40.1 °F33.3 °F77 %30.25 in10.0 miWest (260°)6.9 mphClear
5:35 AM39.0 °F32.9 °F79 %30.26 in10.0 miWSW (250°)4.6 mphClear
5:55 AM38.5 °F32.9 °F80 %30.27 in10.0 miWest (260°)4.6 mphClear
6:15 AM37.9 °F32.4 °F80 %30.28 in10.0 miWest (260°)5.8 mphClear
6:35 AM37.9 °F32.4 °F80 %30.29 in10.0 miWSW (250°)6.9 mphClear
6:55 AM38.7 °F32.9 °F80 %30.30 in10.0 miWSW (240°)5.8 mphClear
7:15 AM38.3 °F32.7 °F80 %30.31 in10.0 miWest (260°)6.9 mphClear
7:35 AM37.8 °F32.4 °F81 %30.33 in10.0 miWest (260°)5.8 mphClear
7:55 AM38.5 °F32.5 °F79 %30.33 in10.0 miWSW (250°)5.8 mphClear
8:15 AM38.7 °F32.9 °F80 %30.34 in10.0 miWSW (240°)8.1 mphClear
8:35 AM38.5 °F32.9 °F80 %30.34 in10.0 miWest (260°)5.8 mphClear
8:55 AM41.0 °F33.8 °F76 %30.36 in10.0 miWest (280°)5.8 mphClear
9:15 AM40.1 °F33.8 °F78 %30.38 in10.0 miWNW (300°)5.8 mphClear
9:35 AM41.7 °F34.0 °F74 %30.38 in10.0 miWNW (300°)6.9 mphClear
9:55 AM43.3 °F34.3 °F71 %30.40 in10.0 miWNW (300°)5.8 mphClear
10:15 AM44.6 °F34.2 °F67 %30.40 in10.0 miWNW (290°)6.9 mphClear
10:35 AM45.5 °F35.1 °F67 %30.40 in10.0 miNW (310°)10.4 mphClear
10:55 AM46.4 °F35.6 °F66 %30.40 in10.0 miNW (320°)10.4 mphClear
11:15 AM47.3 °F35.1 °F62 %30.40 in10.0 miWNW (300°)9.2 mphClear
11:35 AM48.2 °F35.6 °F62 %30.39 in10.0 miNW (310°)9.2 mphClear
11:55 AM49.3 °F35.6 °F59 %30.38 in10.0 miNW (310°)10.4 mphClear
12:15 PM50.4 °F34.7 °F55 %30.38 in10.0 miNW (310°)11.5 mphClear
12:35 PM51.1 °F33.8 °F52 %30.38 in10.0 miNW (310°)11.5 mphClear
12:55 PM51.8 °F33.6 °F50 %30.38 in10.0 miNW (320°)11.5 mphClear
1:15 PM51.8 °F33.3 °F49 %30.38 in10.0 miNNW (330°)13.8 mphClear
1:35 PM52.0 °F34.2 °F51 %30.38 in10.0 miNW (310°)13.8 mphClear
1:55 PM52.0 °F32.9 °F48 %30.38 in10.0 miNW (320°)17.3 mphClear
2:15 PM51.8 °F32.4 °F48 %30.39 in10.0 miNW (320°)13.8 mphClear
2:35 PM51.1 °F31.3 °F47 %30.40 in10.0 miNNW (330°)13.8 mphClear
2:55 PM50.7 °F32.4 °F49 %30.41 in10.0 miNW (320°)8.1 mphClear
3:15 PM50.2 °F32.4 °F50 %30.41 in10.0 miNorth (360°)8.1 mphClear
3:35 PM49.3 °F32.0 °F51 %30.42 in10.0 miNorth (360°)8.1 mphClear
3:55 PM47.7 °F32.4 °F55 %30.42 in10.0 miNorth (360°)5.8 mphClear
4:15 PM47.7 °F32.4 °F55 %30.43 in10.0 miNorth (10°)4.6 mphClear
4:35 PM46.2 °F32.5 °F59 %30.44 in10.0 miCalmClear
4:55 PM44.6 °F32.0 °F61 %30.43 in10.0 miNE (50°)3.5 mphClear
5:15 PM45.1 °F32.0 °F60 %30.44 in10.0 miCalmClear
5:35 PM44.6 °F31.8 °F61 %30.44 in10.0 miCalmClear
5:55 PM42.8 °F31.8 °F65 %30.44 in10.0 miCalmClear
6:15 PM42.3 °F32.0 °F67 %30.45 in10.0 miCalmClear
6:35 PM38.3 °F31.8 °F77 %30.46 in10.0 miSSE (160°)3.5 mphClear
6:55 PM38.5 °F31.6 °F76 %30.47 in10.0 miSSE (150°)3.5 mphClear
7:15 PM39.2 °F32.0 °F75 %30.48 in10.0 miCalmClear
7:35 PM39.2 °F32.0 °F75 %30.48 in10.0 miSE (130°)4.6 mphClear
7:55 PM36.3 °F31.6 °F83 %30.48 in10.0 miSE (130°)4.6 mphClear
8:15 PM38.1 °F31.8 °F78 %30.49 in10.0 miSE (130°)4.6 mphClear
8:35 PM41.0 °F31.8 °F70 %30.48 in10.0 miESE (110°)5.8 mphClear
8:55 PM40.6 °F31.1 °F69 %30.48 in10.0 miEast (100°)5.8 mphClear
9:15 PM39.9 °F30.4 °F69 %30.48 in10.0 miEast (90°)3.5 mphClear
9:35 PM39.2 °F30.4 °F71 %30.48 in10.0 miENE (60°)4.6 mphClear
9:55 PM39.0 °F30.9 °F73 %30.48 in10.0 miEast (90°)3.5 mphClear
10:15 PM38.5 °F30.0 °F72 %30.48 in10.0 miNE (50°)4.6 mphClear
10:35 PM39.4 °F30.0 °F69 %30.46 in10.0 miNE (40°)4.6 mphClear
10:55 PM39.7 °F30.2 °F69 %30.46 in10.0 miESE (110°)3.5 mphClear
11:15 PM34.7 °F30.2 °F84 %30.47 in10.0 miSE (130°)3.5 mphClear
11:35 PM37.9 °F30.2 °F74 %30.47 in10.0 miESE (110°)4.6 mphClear
11:55 PM36.0 °F29.7 °F78 %30.46 in10.0 miENE (70°)3.5 mphClear
Hourly data recorded from KPPQ, located miles away from Louisiana, Missouri







STORIES FROM OUR PARTNERS